Weather in Malokurganny

Russia / Karachay-Cherkess Republic     43°50′36″N   41°54′32″E
temp.,
°C
wind,
m/s
gust,
m/s
humid.,
%
clouds,
%
prec.,
mm/h
press.,
hPa
HPBL,
m
18 august, thu
thu1800:00+14se33940 0.0 101352
03:00+13se33860 0.0 101355
06:00+13se3382100 0.0 101356
09:00+22nnw11560 0.0 1011586
12:00+26nnw224819 0.0 10091735
15:00+23nne126883 1.4 1009142
18:00+20nw22830 2.1 101027
21:00+15sse22950 3.0 101225
19 august, fri
fri1900:00+13ese11945 0.0 101213
03:00+12se2294100 1.1 101246
06:00+12ese2292100 0.1 101246
09:00+17sse1171100 0.1 1011157
12:00+24n2250100 0.0 10091386
15:00+21nne3376100 1.6 1009343
18:00+19ne0187100 3.1 101023
21:00+15sse2196100 4.3 101322
20 august, sat
sat2000:00+14se2294100 0.3 101244
03:00+13se2291100 0.4 101341
06:00+12se2286100 0.0 101331
09:00+19sw0161100 0.0 1012345
12:00+22nnw3259100 0.0 10111196
15:00+23n2257100 0.1 10111376
18:00+20nnw0175100 0.1 101112
21:00+16sse2389100 0.4 101347
21 august, sun
sun2100:00+13sse338082 0.0 101449
03:00+13se336050 0.0 101350
06:00+14sse225867 0.0 101225
09:00+21s014399 0.0 1010369
12:00+26nnw21381 0.0 10081382
15:00+27nw22376 0.0 10071626
18:00+22w265610 0.0 1009288
21:00+16se337725 0.1 101053
22 august, mon
mon2200:00+13se34784 0.0 101059
03:00+15se335914 0.0 100944
06:00+15se335690 0.0 101048
09:00+24ese113832 0.0 1008349
12:00+28nnw2231100 0.0 10061481
15:00+26nw1149100 0.0 1006320
18:00+15se3585100 0.7 1012117
21:00+14se3790100 2.2 1012181